Other Public Products
Issued by NWS Charleston, SC

Current Version | Previous Version | Text Only | Print | Product List | Glossary Off
Versions: 1 2 3 4 5 6 7 8 9 10 11 12 13 14 15 16 17 18 19 20 21 22 23 24 25 26 27 28 29 30 31 32 33 34 35 36 37 38 39 40 41 42 43 44 45 46 47 48 49 50

925
FPUS82 KCHS 212212
OPUCHS

TEST...KCHS/KSAV Gateway Observations...TEST
National Weather Service Charleston SC
500 PM EST TUE NOV 21 2017

NOTE: "fair" indicates few or no clouds below 12,000 feet with no
significant weather and/or obstructions to visibility.

SCZ050-WAZ558-NCZ071-TXZ119-213-PAZ071-DCZ001-FLZ074-172-MI076-
NYZ176-178-MAZ016-IL014-TNZ027-NJZ106-GAZ044-MD014-212300-

...Gateway Observations for Charleston International...

CITY           SKY/WX    TMP DP  RH WIND       PRES   REMARKS
Chas Airport   CLOUDY    66  58  75 E7        30.03S
Seattle        LGT RAIN  52  50  93 SE10      29.82F
Charlotte      CLOUDY    60  49  66 N5        30.08S
Dallas DFW     CLOUDY    67  49  52 N6        29.94R
Dallas Love    PTSUNNY   67  49  52 VRB6      29.95R
Philladelphia  CLOUDY    55  36  48 S9G17     30.03F
Wash National  MOCLDY    61  43  51 S10       30.02F
Baltimore      MOCLDY    57  40  52 S3        30.01S
Miami          MOCLDY    79  70  74 SE6       29.92S
Detroit        LGT RAIN  45  38  76 W13G21    29.85R
Newark         MOCLDY    52  29  41 S7        30.02S
Laguardia      MOCLDY    56  39  53 S8        30.02S
J F K          MOCLDY    52  44  74 S17       30.04S
Boston Logan   PTCLDY    53  36  52 SW15      30.00S
Ft. Lauderdale MOCLDY    79  71  76 SE10      29.91F
Chicago O`Hare PTCLDY    35  18  49 NW16      30.00R WCI  25
Chicago Midway MOCLDY    36  20  52 NW15      30.00R WCI  27
Houston Bush   CLOUDY    75  61  61 NW3       29.87R
Houston Hobby  PTSUNNY   74  64  71 E6        29.86S
Nashville      MOCLDY    58  26  29 SW5       30.00S
Atlanta        LGT RAIN  64  54  69 E3        30.01S

$$

GAZ044-118-TXZ119-213-NCZ071-DCZ001-MDZ014-506-PAZ021-071-NJZ106-
NYZ176-178-MAZ106-OHZ011-021-055-MIZ076-KYZ091-ILZ014-INZ047-
MNZ060-ONZ431-212300-

...Gateway Observations for Savannah International...

CITY           SKY/WX    TMP DP  RH WIND       PRES   REMARKS
Savannah Arpt  CLOUDY    65  64  97 N3        30.00F
Atlanta        LGT RAIN  64  54  69 E3        30.01S
Charlotte      CLOUDY    60  49  66 N5        30.08S
Dallas DFW     CLOUDY    67  49  52 N6        29.94R
Houston Bush   CLOUDY    75  61  61 NW3       29.87R
Wash National  MOCLDY    61  43  51 S10       30.02F
Wash Dulles    MOCLDY    57  43  59 S12       30.00F
Baltimore      MOCLDY    57  40  52 S3        30.01S
Philadelphia   CLOUDY    55  36  48 S9G17     30.03F
Newark         MOCLDY    52  29  41 S7        30.02S
Laguardia      MOCLDY    56  39  53 S8        30.02S
J F K          MOCLDY    52  44  74 S17       30.04S
Boston         PTCLDY    53  36  52 SW15      30.00S
Pittsburg      PTCLDY    54  27  35 SW8       29.90R
Akron          MOCLDY    49  29  46 SW10      29.88R
Cleveland      CLOUDY    52  32  46 SW17      29.88R
Cincinnati     CLOUDY    53  31  42 SW7       29.94R
Columbus       PTCLDY    51  31  47 SW9       29.93R
Detroit        LGT RAIN  45  38  76 W13G21    29.85R
Chicago O`Hare PTCLDY    35  18  49 NW16      30.00R WCI  25
Minneapolis    CLEAR     28   9  44 NW22      30.20R WCI  14
Indianapolis   CLOUDY    49  34  56 W13       29.96R
Toronto Canada MOCLDY    48  34  57 SW14G20   29.75R

$$




USA.gov is the U.S. government's official web portal to all federal, state and local government web resources and services.